Location: Starry Hill Observatory
(46.8582°N, 122.3590°W)
Time: 15:44:53
(UTC-08:00)

ISS - Visible Passes

Search period start: 13 February 2016 00:00
Search period end: 23 February 2016 00:00
Orbit: 398 x 407 km, 51.6° (Epoch: 13 February)

Date Brightness Start Highest point End Pass type
(mag) Time Alt. Az. Time Alt. Az. Time Alt. Az.
13 Feb -3.1 19:21:08 10° WNW 19:24:06 58° N 19:24:06 58° N visible
14 Feb -2.8 18:28:21 10° WNW 18:31:30 44° NNE 18:33:36 18° E visible
14 Feb -0.8 20:04:51 10° WNW 20:06:14 22° W 20:06:14 22° W visible
15 Feb -3.4 19:11:57 10° WNW 19:15:12 78° SSW 19:15:47 56° SE visible
16 Feb -3.3 18:19:06 10° WNW 18:22:21 68° NNE 18:25:24 11° ESE visible
16 Feb -1.1 19:55:54 10° W 19:58:03 22° SW 19:58:03 22° SW visible
17 Feb -2.2 19:02:44 10° WNW 19:05:48 39° SW 19:07:46 18° SSE visible
18 Feb -3.0 18:09:43 10° WNW 18:12:58 67° SSW 18:16:10 10° SE visible
18 Feb -0.3 19:47:45 10° WSW 19:48:51 11° SW 19:49:57 10° SSW visible
19 Feb -0.8 18:53:42 10° W 18:56:09 20° SW 18:58:34 10° S visible
